KANW Airport (Ainsworth Rgnl) Information

FAA: ANW - ICAO: KANW

KANW Airport Location

State Nebraska
County Brown
City Ainsworth
KANW Airport is 6 miles northwest of Ainsworth, NE.
Latitude 42-34-45.2000N
Longitude 099-59-34.7000W
Elevation 2,588ft

KANW Airport METARs

METAR KANW 071855Z AUTO 00000KT 10SM OVC004 M09/M11 A3027 RMK AO2 T10911106
Altimeter 30.27"
Temperature -9.1°C (15.6°F)
Wind 0° at 0KT
Clouds overcast at 400ft
Visibility 10.0mi
Time observed: 2022-12-07T18:55:00Z

KANW Airport Details

Status Operational
Activation December 1944
Ownership Public
Usage Public
Chart OMAHA
ATC on-site No
Beacon schedule sunset-sunrise
Beacon color clear green

KANW Airport Contacts

Owner AINSWORTH ARPT AUTH
Owner address PO BOX 84, AINSWORTH, NE 69210-0084
Owner phone 402-387-1491
Manager WILLIAM GALT
Manager address 543 BIRCH CREEK RD, WHITE SULPHUR SRPINGS, MT 59645
Manager phone 406 547 2107

KANW Airport (Ainsworth Rgnl) Radio Frequencies

KANW (Airport) Radio Frequencies

UNICOM 122.8
Common traffic advisory frequency (CTAF) 122.8